TimeEDT,TemperatureF,Dew PointF,Humidity,Sea Level PressureIn,VisibilityMPH,Wind Direction,Wind SpeedMPH,Gust SpeedMPH,PrecipitationIn,Events,Conditions,WindDirDegrees,DateUTC
12:52 AM,55.0,54.0,96,29.98,4.0,SSW,6.9,-,N/A,,Clear,210,2013-05-11 04:52:00
1:16 AM,55.4,53.6,94,29.97,3.0,SSW,4.6,-,N/A,,Partly Cloudy,210,2013-05-11 05:16:00
1:38 AM,55.4,53.6,94,29.96,2.5,SW,4.6,-,N/A,,Mostly Cloudy,220,2013-05-11 05:38:00
1:50 AM,55.4,53.6,94,29.96,0.8,SW,4.6,-,N/A,,Overcast,220,2013-05-11 05:50:00
1:52 AM,55.0,55.0,100,29.96,0.8,SW,4.6,-,N/A,,Overcast,220,2013-05-11 05:52:00
2:07 AM,55.4,55.4,100,29.96,0.2,SW,5.8,-,N/A,Fog,Fog,230,2013-05-11 06:07:00
2:52 AM,55.0,55.0,100,29.95,0.2,SSW,3.5,-,N/A,Fog,Fog,200,2013-05-11 06:52:00
3:52 AM,55.0,55.0,100,29.93,0.2,SSW,6.9,-,0.01,Fog,Fog,200,2013-05-11 07:52:00
4:52 AM,53.1,53.1,100,29.92,0.2,South,5.8,-,N/A,Fog,Fog,180,2013-05-11 08:52:00
5:52 AM,54.0,54.0,100,29.92,0.2,SSW,6.9,-,N/A,Fog,Fog,210,2013-05-11 09:52:00
6:38 AM,57.2,57.2,100,29.91,1.0,SSW,6.9,-,N/A,,Mist,210,2013-05-11 10:38:00
6:43 AM,57.2,57.2,100,29.91,3.0,SSW,9.2,-,N/A,,Mostly Cloudy,200,2013-05-11 10:43:00
6:52 AM,57.0,57.0,100,29.92,6.0,SSW,8.1,-,N/A,,Scattered Clouds,200,2013-05-11 10:52:00
7:52 AM,57.0,55.9,96,29.92,7.0,SSW,9.2,17.3,N/A,,Scattered Clouds,210,2013-05-11 11:52:00
8:52 AM,57.9,55.9,93,29.91,7.0,SW,10.4,17.3,N/A,,Scattered Clouds,220,2013-05-11 12:52:00
9:52 AM,59.0,55.9,90,29.89,8.0,SSW,8.1,19.6,0.00,,Overcast,210,2013-05-11 13:52:00
10:52 AM,62.1,55.9,80,29.90,10.0,SW,8.1,-,N/A,,Mostly Cloudy,230,2013-05-11 14:52:00
11:52 AM,64.0,57.0,78,29.90,10.0,SW,10.4,20.7,0.00,,Scattered Clouds,220,2013-05-11 15:52:00
12:52 PM,60.1,55.9,86,29.87,9.0,SW,11.5,20.7,N/A,,Overcast,220,2013-05-11 16:52:00
1:52 PM,60.1,55.0,83,29.88,10.0,WSW,8.1,16.1,N/A,,Overcast,240,2013-05-11 17:52:00
2:52 PM,60.1,55.0,83,29.88,10.0,SW,8.1,-,0.00,,Overcast,230,2013-05-11 18:52:00
3:52 PM,59.0,57.9,96,29.86,2.5,SW,12.7,24.2,0.03,Rain,Rain,220,2013-05-11 19:52:00
4:04 PM,59.0,57.2,94,29.87,1.8,SW,12.7,25.3,0.05,Rain,Heavy Rain,220,2013-05-11 20:04:00
4:31 PM,60.8,59.0,94,29.84,2.0,SSW,10.4,19.6,0.12,Rain,Rain,200,2013-05-11 20:31:00
4:48 PM,60.8,59.0,94,29.85,2.0,SSW,11.5,27.6,0.14,Rain,Light Rain,200,2013-05-11 20:48:00
4:52 PM,59.0,59.0,100,29.85,2.0,SSW,9.2,23.0,0.15,Rain,Rain,200,2013-05-11 20:52:00
5:10 PM,59.0,59.0,100,29.83,4.0,South,10.4,17.3,0.02,Rain,Light Rain,180,2013-05-11 21:10:00
5:52 PM,57.0,57.0,100,29.82,3.0,Variable,5.8,-,0.03,Rain,Light Rain,0,2013-05-11 21:52:00
5:59 PM,57.2,57.2,100,29.82,2.5,South,8.1,16.1,0.00,Rain,Light Rain,180,2013-05-11 21:59:00
6:30 PM,57.2,57.2,100,29.81,4.0,South,10.4,-,0.04,Rain,Light Rain,170,2013-05-11 22:30:00
6:52 PM,57.0,57.0,100,29.83,6.0,South,13.8,26.5,0.05,,Overcast,170,2013-05-11 22:52:00
7:03 PM,57.2,55.4,94,29.82,6.0,South,15.0,24.2,N/A,,Overcast,170,2013-05-11 23:03:00
7:35 PM,57.2,57.2,100,29.80,1.5,South,11.5,23.0,N/A,,Overcast,170,2013-05-11 23:35:00
7:44 PM,57.2,57.2,100,29.80,0.5,South,11.5,18.4,N/A,Fog,Fog,170,2013-05-11 23:44:00
7:52 PM,57.0,55.9,96,29.80,0.5,South,9.2,19.6,N/A,Fog,Fog,170,2013-05-11 23:52:00
8:15 PM,57.2,57.2,100,29.81,1.2,South,6.9,19.6,0.05,Rain,Rain,180,2013-05-12 00:15:00
8:52 PM,57.9,57.9,100,29.80,1.0,South,10.4,19.6,0.09,,Mist,180,2013-05-12 00:52:00
9:14 PM,57.2,57.2,100,29.80,3.0,South,6.9,-,0.01,Rain,Light Rain,190,2013-05-12 01:14:00
9:52 PM,59.0,59.0,100,29.81,4.0,SSW,10.4,18.4,0.01,Rain,Light Rain,210,2013-05-12 01:52:00
10:52 PM,59.0,59.0,100,29.80,3.0,SSW,6.9,-,0.01,Rain,Light Rain,210,2013-05-12 02:52:00
11:19 PM,59.0,59.0,100,29.79,2.5,SSW,10.4,17.3,0.03,Rain,Rain,200,2013-05-12 03:19:00
11:52 PM,59.0,59.0,100,29.77,2.0,SSW,9.2,19.6,0.11,Rain,Rain,200,2013-05-12 03:52:00